Location: Laguna Woods
(33.6103°N, 117.7253°W)
Time: 18:58:29
(UTC+00:00)

Daily predictions for brighter satellites

Satellite Brightness Start Highest point End
(mag) Time Altitude Azimuth Time Altitude Azimuth Time Altitude Azimuth
ATLAS 2AS CENTAUR R/B 4.5 12:05:38 10° S 12:12:33 35° ESE 12:19:33 10° NE
Delta 2 Rocket 4.2 12:16:38 52° ENE 12:16:38 52° ENE 12:20:07 10° E
USA 234 3.5 12:13:40 10° NE 12:20:10 65° SE 12:25:57 13° SSW
SL-16 R/B 2.1 12:28:21 48° NNW 12:30:00 89° WSW 12:35:40 10° SSE
SL-8 R/B 4.1 12:32:33 48° N 12:33:19 53° NE 12:38:01 10° ESE
ADEOS 3.4 12:28:25 10° NNE 12:33:40 85° WNW 12:38:52 10° SSW
Cosmos 1745 Rocket 3.8 12:28:10 10° S 12:34:22 75° W 12:40:41 10° N
ASTRO E2 3.2 12:36:31 52° SSE 12:36:31 52° SSE 12:40:18 10° E
Cosmos 2151 2.9 12:36:58 10° S 12:41:09 80° E 12:45:21 10° N
ERS-2 2.3 12:40:53 10° SSE 12:44:29 69° ENE 12:45:29 44° N
SL-4 R/B 3.8 12:49:34 19° N 12:49:34 19° N 12:51:08 10° NNE
BREEZE-M DEB (TANK) 2.9 12:47:37 33° S 12:48:35 49° SE 12:53:34 10° NE
OAO 3 Rocket 3.0 12:48:32 55° WNW 12:49:31 77° N 12:54:15 10° E
Cosmos 1777 Rocket 3.9 12:46:40 10° SSW 12:51:48 62° WNW 12:56:57 10° N
Cosmos 1766 Rocket 4.5 12:47:50 10° SSE 12:52:08 51° E 12:56:29 10° NNE
SJ 16-02 2.5 12:51:30 10° S 12:55:41 44° ESE 12:59:53 10° NNE
COSMO-SKYMED 1 3.4 12:52:09 10° SSE 12:56:21 52° ENE 13:00:34 10° N
Lacrosse 5 2.9 12:51:36 10° SSW 12:56:26 46° ESE 13:01:15 10° NE
Meteor PRIRODA 4.3 12:53:40 10° NNE 12:57:21 58° E 13:01:01 10° S
CZ-4B R/B 1.1 12:54:14 10° S 12:57:22 74° WSW 12:57:22 74° WSW
BREEZE M DEB (TANK) 4.4 12:39:38 10° SW 12:57:30 63° SE 13:01:51 10° ENE
METEOR-M 4.1 12:52:35 10° N 12:57:48 57° WNW 13:03:00 10° SSW
Cosmos 1709 Rocket 4.0 12:54:01 10° S 13:00:21 84° W 13:06:45 10° N
Cosmos 1606 2.7 12:57:12 13° N 13:00:37 79° E 13:04:23 10° S
BREEZE-M DEB (TANK) 3.9 13:02:40 22° N 13:02:40 22° N 13:04:39 10° NE
Meteor 1-31 Rocket 2.9 12:59:49 10° N 13:03:29 44° WNW 13:07:07 10° SSW
Cosmos 389 Rocket 2.2 13:02:33 37° NNW 13:03:44 72° W 13:07:11 10° S
Cosmos 2263 Rocket 2.1 12:59:08 10° SSW 13:04:43 64° WNW 13:10:22 10° NNE
CZ-4B R/B 3.0 13:08:06 10° N 13:12:36 75° WNW 13:17:00 10° SSW
PSLV R/B 4.4 13:11:51 10° SSE 13:15:59 64° ENE 13:20:06 10° N
Cosmos 1441 Rocket 3.5 13:13:45 10° SSW 13:17:24 42° W 13:21:02 10° N
GPS 2-04 Rocket1 3.2 13:14:43 17° SW 13:17:28 51° SSE 13:21:05 10° E
ALOS 3.4 13:16:01 10° NNW 13:22:35 13° WSW 13:23:19 10° WSW
SKYMED 3 4.5 13:16:02 10° S 13:20:22 79° WSW 13:24:43 10° NNW
Cosmos 1603 4.1 13:18:47 10° NNW 13:24:22 65° ENE 13:29:57 10° SSE
OAO 2 Rocket 3.6 13:21:31 13° WSW 13:26:01 68° SSE 13:31:11 10° E
Atlas Centaur 2 3.3 13:21:32 10° SW 13:26:36 32° SSE 13:30:42 10° E
MOS 1 Rocket 4.4 13:25:35 10° SSE 13:29:54 46° ENE 13:34:30 10° N
Cosmos 1184 Rocket 2.7 13:28:18 10° SSW 13:31:31 59° W 13:34:47 10° N
FALCON 9 DEB 4.1 13:29:12 10° SSW 13:32:15 45° SE 13:35:20 10° ENE
Cosmos 1943 3.5 13:31:10 10° NNW 13:36:53 73° ENE 13:42:33 10° SSE
ASTRO F (AKARI) 4.2 13:34:09 10° N 13:37:10 55° WNW 13:40:13 10° SSW
Cosmos 2184 Rocket 4.4 13:32:18 10° S 13:38:29 70° E 13:44:47 10° N
NOSS 3-4 (A) 3.7 13:38:16 10° SW 13:43:46 42° NW 13:49:33 10° NNE
NOSS 3-4 (C) 3.7 13:38:22 10° SW 13:43:53 42° NW 13:49:42 10° NNE
SKYMED 2 4.1 13:40:22 10° SSW 13:44:25 39° W 13:48:30 10° NNW
SWAS 4.4 13:41:06 10° NNW 13:45:21 70° WSW 13:49:35 10° SSE
Envisat 3.1 13:41:41 10° NNE 13:46:47 84° ESE 13:51:51 10° SSW
FALCON 9 DEB 3.2 13:45:45 10° SW 13:48:55 70° SE 13:52:07 10° NE
NOSS 3-2 (C) 4.3 13:41:03 10° NNW 13:49:02 90° WSW 13:57:48 10° SSE
Meteor 1-4 Rocket 2.3 13:46:16 10° N 13:49:43 86° W 13:53:09 10° S
BREEZE-M (TANK) 4.3 13:36:35 10° SW 13:51:11 64° SE 13:54:54 10° ENE
Cosmos 2084 4.0 13:48:08 10° NNW 13:52:36 64° ENE 13:57:03 10° SE
Cosmos 1862 4.3 13:49:10 10° S 13:53:04 53° E 13:57:02 10° NNE
USA 276 2.7 13:50:36 12° WNW 13:53:19 40° SW 13:56:17 10° SSE
Cosmos 1937 Rocket 4.2 13:49:01 10° S 13:54:01 59° ESE 13:59:05 10° NNE
Cosmos 1515 Rocket 4.0 13:50:25 10° N 13:54:52 70° E 13:59:18 10° SSE
H-2A R/B 2.2 13:51:52 10° N 13:55:44 80° WNW 13:59:32 10° SSW
Delta 2 Rocket 3.5 13:53:34 10° WNW 13:58:13 80° SSW 14:02:17 10° ESE
Okean O Rocket 2.5 13:54:25 10° NNE 13:58:46 55° E 14:03:07 10° S
H-2A R/B 3.4 13:56:24 10° N 13:59:57 34° WNW 14:03:28 10° SW
USA 234 3.9 13:57:07 10° NNE 14:02:50 34° NW 14:08:33 10° W
ATLAS 2AS CENTAUR R/B 3.3 13:55:45 10° SW 14:03:19 48° NW 14:10:57 10° NNE
